Regional Weather Roundup
Issued by NWS

Home | Current Version | Previous Version | Graphics & Text | Print | Product List | Glossary On
Versions: 1 2 3 4 5 6 7 8 9 10 11 12 13 14 15 16 17 18 19 20 21 22 23 24 25 26 27 28 29 30 31 32 33 34 35 36 37 38 39 40 41 42 43 44 45 46 47 48 49 50
000
ASUS43 KBIS 191910
RWRND

NORTH DAKOTA REGIONAL WEATHER ROUNDUP
NATIONAL WEATHER SERVICE BISMARCK ND
200 PM CDT SUN OCT 19 2014

NOTE: "FAIR" INDICATES FEW OR NO CLOUDS BELOW 12,000 FEET WITH NO
SIGNIFICANT WEATHER AND/OR OBSTRUCTIONS TO VISIBILITY.


NDZ001>003-009>011-017-192000-
NORTHWEST NORTH DAKOTA

CITY           SKY/WX    TMP DP  RH WIND       PRES   REMARKS
WILLISTON      SUNNY     66  41  40 CALM      30.01S
MINOT          SUNNY     67  38  34 NW17      29.94S
MINOT AFB      SUNNY     66  41  39 NW16      29.93S
$$

NDZ018>021-031>035-040>046-192000-
SOUTHWEST NORTH DAKOTA

CITY           SKY/WX    TMP DP  RH WIND       PRES   REMARKS
BISMARCK       SUNNY     72  43  35 NW13G18   29.95R
DICKINSON      SUNNY     66  42  41 NW12      29.99S
GARRISON         N/A     69  41  36 NW14      29.95S
HETTINGER ARPT SUNNY     69  37  30 NW18      30.01F
$$

NDZ004>008-012>016-024-026-027-054-192000-
NORTHEAST NORTH DAKOTA

CITY           SKY/WX    TMP DP  RH WIND       PRES   REMARKS
GRAND FORKS    SUNNY     64  42  44 NW13G20   29.81S
GRND FRKS AFB  SUNNY     65  42  43 N15G21    29.82S
DEVILS LAKE    SUNNY     63  41  45 NW14G21   29.86R
$$

NDZ022-023-025-028>030-036>039-047>053-192000-
SOUTHEAST NORTH DAKOTA

CITY           SKY/WX    TMP DP  RH WIND       PRES   REMARKS
FARGO          SUNNY     69  43  38 NW16      29.81S
JAMESTOWN      SUNNY     69  40  34 NW18G24   29.87S
$$



USA.gov is the U.S. government's official web portal to all federal, state and local government web resources and services.